Location: Staunton
(38.1490°N, 79.0720°W)
Time: 21:45:06
(UTC-04:00)

ISS - Pass Details

Date: 05 July 2020
Orbit: 417 x 421 km, 51.6° (Epoch: 08 July)

Event Time Altitude Azimuth Distance (km) Brightness Sun altitude
Exits shadow 04:21:34 - 297° (WNW) 2,045 -0.4 -15.8°
Reaches altitude 10° 04:24:03 10° 327° (NNW) 1,495 -0.8 -15.5°
Maximum altitude 04:25:04 11° 345° (NNW) 1,433 -0.6 -15.4°
Drops below altitude 10° 04:26:05 10° 3° (N) 1,496 -0.2 -15.2°
Sets 04:29:34 0° 41° (NE) 2,361 2.0 -14.8°
